Tracking 19717 objects as of 24-Jun-2019
HD Live streaming from Space Station
objects crossing your sky now

SL-14 R/B

Track SL-14 R/B now!
10-day predictions


NORAD ID: 16327
Int'l Code: 1985-113B
Perigee: 611.2 km
Apogee: 640.1 km
Inclination: 82.5 °
Period: 97.1 minutes
Semi major axis: 6996 km
RCS: 4.5252 m2 (large)
Launch date: December 12, 1985
Source: Commonwealth of Independent States (former USSR) (CIS)
Launch site: PLESETSK MISSILE AND SPACE COMPLEX (PKMTR)

Note: This is a ROCKET BODY
aabbcc
Your satellite tracking list
Your tracking list is empty




NASA's NSSDC Master Catalog

Two Line Element Set (TLE):
1 16327U 85113B   19174.93958399 +.00000065 +00000-0 +49203-5 0  9998
2 16327 082.5345 123.6128 0020616 079.5914 342.9728 14.83437489789955
Source of the keplerian elements: AFSPC